[[{"header":{"parameterUnit":"m.s-1","parameterCategory":2,"la1":30.2992,"la2":30.254,"lo1":-89.0895,"lo2":-89.0443,"dy":0.0025,"dx":0.0025,"nx":19,"ny":19,"refTime":"2026-03-27T21:00:00:Z","depth":"0","parameterNumber":2,"parameterNumberName":"U-component_of_CURRENTS"},"data":[0,0,0,-0.1334,-0.1335,-0.1347,-0.1347,-0.1369,-0.1369,0,0,0,0,0,0,0,0,0,0,0,-0.1326,-0.1326,-0.1334,-0.1335,-0.1347,-0.1347,-0.1369,-0.1369,0,0,0,0,0,0,0,0,0,0,0,-0.1326,-0.1326,-0.1326,-0.1335,-0.1347,-0.1347,-0.1369,-0.1358,0,0,0,0,0,0,0,0,0,0,-0.1345,-0.1334,-0.1326,-0.1326,-0.1335,-0.1347,-0.1347,-0.1357,-0.1358,-0.1366,0,-0.1367,0,-0.1371,-0.1371,-0.1371,0,0,0,-0.1333,-0.1333,-0.134,-0.1326,-0.1335,-0.1347,-0.1341,-0.1358,-0.1359,-0.1368,-0.1367,-0.1368,-0.1372,-0.1371,-0.1372,-0.1412,-0.1413,0,0,-0.1332,-0.1326,-0.1339,-0.1341,-0.1337,-0.134,-0.1341,-0.1359,-0.1357,-0.1367,-0.1368,-0.1372,-0.1372,-0.1372,-0.1412,-0.1412,0,0,0,-0.1331,-0.1325,-0.1332,-0.134,-0.1344,-0.1341,-0.1342,-0.1356,-0.136,-0.1369,-0.1372,-0.1372,-0.1372,-0.1412,-0.1412,-0.1413,0,0,0,-0.1331,-0.1325,-0.1331,-0.1327,-0.1343,-0.1349,-0.1339,-0.1358,-0.1361,-0.1372,-0.1372,-0.1372,-0.1412,-0.1412,-0.1413,-0.1412,0,0,0,-0.1326,-0.1324,-0.1326,-0.1327,-0.1334,-0.1349,-0.1353,-0.1359,-0.1363,-0.1371,-0.1372,-0.1411,-0.1412,-0.1412,-0.1412,-0.1416,0,0,0,-0.1319,-0.1325,-0.1326,-0.1336,-0.1334,-0.1357,-0.1353,-0.1366,-0.1374,-0.1372,-0.1412,-0.1412,-0.1412,-0.1411,-0.1416,-0.1344,-0.1341,0,0,-0.1324,-0.1325,-0.1333,-0.1335,-0.1357,-0.1355,-0.1378,-0.1382,-0.1386,-0.1405,-0.1406,-0.1413,-0.1411,-0.1416,-0.1378,-0.1373,0,0,0,-0.1335,-0.1336,-0.1345,-0.1356,-0.1374,-0.1385,-0.1392,-0.1396,-0.1409,-0.1394,-0.1425,-0.1424,-0.1426,-0.1383,-0.1379,-0.1355,-0.1415,-0.1415,-0.1415,-0.1323,-0.1339,-0.1351,-0.137,-0.1386,-0.1406,-0.1415,-0.1423,-0.1425,-0.1432,-0.1433,-0.145,-0.1404,-0.14,-0.1376,-0.1444,-0.1444,-0.1444,-0.1444,-0.1321,-0.1322,-0.1348,-0.1363,-0.1386,-0.1403,-0.1433,-0.1435,-0.1451,-0.1449,-0.1451,-0.1397,-0.1396,-0.1372,-0.1444,-0.1444,-0.1444,-0.1444,-0.1444,-0.1298,-0.13,-0.1315,-0.1338,-0.1362,-0.1393,-0.1412,-0.1439,-0.1451,-0.1457,-0.141,-0.1409,-0.1379,-0.1458,-0.1458,-0.1458,-0.1458,-0.1458,-0.1458,-0.1259,-0.1277,-0.1276,-0.131,-0.1318,-0.1349,-0.14,-0.1412,-0.1413,-0.1407,-0.1407,-0.1379,-0.1454,-0.1444,-0.1459,-0.1459,-0.1459,-0.1459,-0.1459,-0.1205,-0.1223,-0.1219,-0.1225,-0.1253,-0.1249,-0.1324,-0.1329,-0.1356,-0.1335,-0.1312,-0.1379,-0.1371,-0.1373,-0.1361,-0.1354,-0.1354,-0.1354,-0.1354,-0.1158,-0.1173,-0.115,-0.1147,-0.1161,-0.1195,-0.1165,-0.1193,-0.1219,-0.1211,-0.1257,-0.1232,-0.1238,-0.1222,-0.1227,-0.1213,-0.1168,-0.1168,-0.1168,-0.1108,-0.1118,-0.1077,-0.1095,-0.1105,-0.1113,-0.1055,-0.1073,-0.1123,-0.1161,-0.124,-0.1248,-0.1215,-0.1226,-0.1204,-0.1213,-0.1191,0,0]},{"header":{"parameterUnit":"m.s-1","parameterCategory":2,"la1":30.2992,"la2":30.254,"lo1":-89.0895,"lo2":-89.0443,"dy":0.0025,"dx":0.0025,"nx":19,"ny":19,"refTime":"2026-03-27T21:00:00:Z","depth":"0","parameterNumber":3,"parameterNumberName":"V-component_of_CURRENTS"},"data":[0,0,0,-0.04,-0.04,-0.0385,-0.0385,-0.0349,-0.0349,0,0,0,0,0,0,0,0,0,0,0,-0.0404,-0.0404,-0.04,-0.04,-0.0385,-0.0385,-0.0349,-0.0349,0,0,0,0,0,0,0,0,0,0,0,-0.0404,-0.0404,-0.0404,-0.04,-0.0385,-0.0385,-0.0349,-0.0363,0,0,0,0,0,0,0,0,0,0,-0.0379,-0.0388,-0.0404,-0.0404,-0.04,-0.0385,-0.0385,-0.0364,-0.0363,-0.0353,0,-0.0354,0,-0.0353,-0.0347,-0.0347,0,0,0,-0.0394,-0.039,-0.0386,-0.0404,-0.04,-0.0385,-0.039,-0.0363,-0.0361,-0.0351,-0.0353,-0.0352,-0.0353,-0.0347,-0.0346,-0.0334,-0.0334,0,0,-0.0395,-0.0399,-0.0387,-0.0385,-0.0399,-0.0391,-0.039,-0.0362,-0.0361,-0.0353,-0.0351,-0.0352,-0.0346,-0.0346,-0.0334,-0.0334,0,0,0,-0.0401,-0.04,-0.0397,-0.0386,-0.0386,-0.039,-0.0389,-0.0362,-0.0362,-0.0351,-0.0352,-0.0346,-0.0346,-0.0334,-0.0334,-0.0368,0,0,0,-0.0401,-0.0404,-0.0397,-0.0399,-0.0387,-0.0377,-0.039,-0.0363,-0.0361,-0.0352,-0.0346,-0.0345,-0.0334,-0.0334,-0.0367,-0.0384,0,0,0,-0.0404,-0.0404,-0.0403,-0.04,-0.0396,-0.0377,-0.0375,-0.0363,-0.0361,-0.0347,-0.0345,-0.0334,-0.0334,-0.0366,-0.0382,-0.0371,0,0,0,-0.0406,-0.0419,-0.0404,-0.0418,-0.0396,-0.0402,-0.0375,-0.0374,-0.0365,-0.0346,-0.0334,-0.0334,-0.0365,-0.0381,-0.037,-0.035,-0.0352,0,0,-0.0427,-0.0422,-0.0432,-0.0418,-0.0437,-0.0404,-0.0413,-0.0388,-0.0364,-0.034,-0.034,-0.0367,-0.0382,-0.0371,-0.0366,-0.0368,0,0,0,-0.0442,-0.045,-0.0453,-0.0459,-0.0453,-0.0445,-0.0418,-0.04,-0.0377,-0.0361,-0.0363,-0.0371,-0.0363,-0.0349,-0.0351,-0.0298,-0.0335,-0.0335,-0.0335,-0.0473,-0.0475,-0.0497,-0.0497,-0.0494,-0.0471,-0.0458,-0.0425,-0.04,-0.0393,-0.0396,-0.0408,-0.0394,-0.0395,-0.0342,-0.0391,-0.0391,-0.0391,-0.0391,-0.0515,-0.0533,-0.0529,-0.055,-0.0536,-0.0533,-0.0492,-0.0469,-0.0435,-0.0419,-0.0408,-0.0383,-0.0398,-0.0341,-0.0393,-0.0393,-0.0393,-0.0392,-0.0392,-0.0542,-0.0553,-0.0562,-0.0586,-0.0592,-0.057,-0.056,-0.0523,-0.047,-0.0463,-0.042,-0.0419,-0.0369,-0.045,-0.045,-0.045,-0.045,-0.045,-0.045,-0.0568,-0.0579,-0.0606,-0.0624,-0.0637,-0.0637,-0.0598,-0.0565,-0.0498,-0.0455,-0.0454,-0.0366,-0.0425,-0.0423,-0.045,-0.045,-0.045,-0.045,-0.045,-0.0604,-0.0606,-0.0649,-0.0668,-0.0696,-0.0699,-0.0658,-0.0572,-0.0524,-0.0479,-0.0368,-0.0437,-0.0419,-0.0417,-0.0414,-0.0437,-0.0437,-0.0437,-0.0437,-0.0624,-0.063,-0.0683,-0.0718,-0.0744,-0.0728,-0.0686,-0.0594,-0.0439,-0.0362,-0.0334,-0.0315,-0.0318,-0.0292,-0.0293,-0.0287,-0.0277,-0.0277,-0.0277,-0.0643,-0.066,-0.0697,-0.0734,-0.0765,-0.075,-0.0705,-0.0615,-0.0392,-0.0266,-0.0266,-0.0272,-0.024,-0.0249,-0.0205,-0.021,-0.0199,0,0]}],[{"header":{"parameterUnit":"m.s-1","parameterCategory":2,"la1":30.2992,"la2":30.254,"lo1":-89.0895,"lo2":-89.0443,"dy":0.0025,"dx":0.0025,"nx":19,"ny":19,"refTime":"2026-03-27T21:00:00:Z","depth":"2","parameterNumber":2,"parameterNumberName":"U-component_of_CURRENTS"},"data":[0,0,0,-0.1266,-0.1266,-0.1282,-0.1282,-0.1304,-0.1304,0,0,0,0,0,0,0,0,0,0,0,-0.1257,-0.1257,-0.1266,-0.1266,-0.1282,-0.1282,-0.1304,-0.1304,0,0,0,0,0,0,0,0,0,0,0,-0.1257,-0.1257,-0.1257,-0.1266,-0.1282,-0.1282,-0.1304,-0.1291,0,0,0,0,0,0,0,0,0,0,-0.1276,-0.1266,-0.1257,-0.1257,-0.1266,-0.1282,-0.1282,-0.1291,-0.1292,-0.1298,0,-0.13,0,-0.1305,-0.1306,-0.1306,0,0,0,-0.1264,-0.1264,-0.1272,-0.1257,-0.1266,-0.1282,-0.1274,-0.1291,-0.1293,-0.13,-0.13,-0.1301,-0.1305,-0.1306,-0.1306,-0.1346,-0.1346,0,0,-0.1264,-0.1257,-0.1271,-0.1273,-0.127,-0.1274,-0.1275,-0.1292,-0.1292,-0.13,-0.1302,-0.1306,-0.1306,-0.1307,-0.1345,-0.1346,0,0,0,-0.1262,-0.1257,-0.1264,-0.1272,-0.1276,-0.1274,-0.1275,-0.1291,-0.1294,-0.1302,-0.1306,-0.1307,-0.1307,-0.1345,-0.1345,-0.1347,0,0,0,-0.1262,-0.1256,-0.1263,-0.1259,-0.1276,-0.1283,-0.1273,-0.1293,-0.1295,-0.1306,-0.1307,-0.1307,-0.1345,-0.1345,-0.1346,-0.1345,0,0,0,-0.1257,-0.1256,-0.1258,-0.1259,-0.1267,-0.1283,-0.1287,-0.1293,-0.1298,-0.1306,-0.1307,-0.1345,-0.1345,-0.1346,-0.1344,-0.1347,0,0,0,-0.1249,-0.1256,-0.1258,-0.1268,-0.1267,-0.1291,-0.1287,-0.1301,-0.1309,-0.1307,-0.1345,-0.1345,-0.1346,-0.1344,-0.1347,-0.1269,-0.1264,0,0,-0.1255,-0.1256,-0.1264,-0.1267,-0.1289,-0.1288,-0.131,-0.1316,-0.132,-0.1338,-0.1339,-0.1347,-0.1344,-0.1347,-0.1301,-0.1295,0,0,0,-0.1265,-0.1267,-0.1276,-0.1287,-0.1305,-0.1316,-0.1325,-0.133,-0.1343,-0.1328,-0.1358,-0.1356,-0.1358,-0.131,-0.1306,-0.1348,-0.1348,-0.1348,-0.1348,-0.1254,-0.127,-0.1282,-0.13,-0.1316,-0.1337,-0.1346,-0.1355,-0.1358,-0.1365,-0.1366,-0.138,-0.133,-0.1326,-0.1377,-0.1377,-0.1377,-0.1377,-0.1377,-0.1253,-0.1253,-0.1278,-0.1294,-0.1316,-0.1333,-0.1362,-0.1366,-0.1381,-0.138,-0.1382,-0.1325,-0.1321,-0.1377,-0.1377,-0.1377,-0.1377,-0.1377,-0.1377,-0.1231,-0.1232,-0.1248,-0.127,-0.1293,-0.1324,-0.134,-0.1368,-0.1381,-0.1386,-0.1334,-0.1333,-0.1373,-0.1387,-0.1387,-0.1387,-0.1387,-0.1387,-0.1387,-0.1193,-0.1211,-0.1211,-0.1244,-0.1251,-0.1279,-0.1328,-0.1337,-0.1336,-0.133,-0.1329,-0.1384,-0.1383,-0.1374,-0.1387,-0.1387,-0.1387,-0.1387,-0.1387,-0.1142,-0.1159,-0.1155,-0.1161,-0.1184,-0.1172,-0.1247,-0.1245,-0.1271,-0.1247,-0.1296,-0.1298,-0.1288,-0.1291,-0.1279,-0.1267,-0.1267,-0.1267,-0.1267,-0.1097,-0.1112,-0.1088,-0.1082,-0.109,-0.1114,-0.1061,-0.1058,-0.1107,-0.1109,-0.1116,-0.1089,-0.1097,-0.1076,-0.1083,-0.1067,-0.1,-0.1,-0.0999,-0.1049,-0.1057,-0.1017,-0.103,-0.1033,-0.1024,-0.0928,-0.0853,-0.0887,-0.0989,-0.1072,-0.1249,-0.1226,-0.1232,-0.1215,-0.1221,-0.1201,0,0]},{"header":{"parameterUnit":"m.s-1","parameterCategory":2,"la1":30.2992,"la2":30.254,"lo1":-89.0895,"lo2":-89.0443,"dy":0.0025,"dx":0.0025,"nx":19,"ny":19,"refTime":"2026-03-27T21:00:00:Z","depth":"2","parameterNumber":3,"parameterNumberName":"V-component_of_CURRENTS"},"data":[0,0,0,-0.028,-0.028,-0.0266,-0.0266,-0.0228,-0.0228,0,0,0,0,0,0,0,0,0,0,0,-0.0284,-0.0284,-0.028,-0.028,-0.0266,-0.0266,-0.0228,-0.0228,0,0,0,0,0,0,0,0,0,0,0,-0.0284,-0.0284,-0.0284,-0.028,-0.0267,-0.0266,-0.0228,-0.0242,0,0,0,0,0,0,0,0,0,0,-0.0257,-0.0267,-0.0284,-0.0284,-0.028,-0.0267,-0.0266,-0.0243,-0.0241,-0.023,0,-0.0232,0,-0.0231,-0.0225,-0.0225,0,0,0,-0.0274,-0.0269,-0.0265,-0.0284,-0.028,-0.0267,-0.0271,-0.0242,-0.024,-0.0228,-0.0231,-0.023,-0.0231,-0.0225,-0.0225,-0.0212,-0.0212,0,0,-0.0275,-0.0279,-0.0266,-0.0264,-0.0281,-0.0271,-0.0271,-0.0241,-0.0241,-0.0231,-0.0229,-0.023,-0.0225,-0.0224,-0.0212,-0.0212,0,0,0,-0.0281,-0.028,-0.0277,-0.0265,-0.0266,-0.0271,-0.027,-0.0242,-0.0241,-0.0229,-0.023,-0.0224,-0.0224,-0.0212,-0.0212,-0.0249,0,0,0,-0.0281,-0.0284,-0.0278,-0.028,-0.0267,-0.0257,-0.0272,-0.0243,-0.024,-0.023,-0.0224,-0.0224,-0.0212,-0.0212,-0.0248,-0.0266,0,0,0,-0.0283,-0.0284,-0.0284,-0.028,-0.0277,-0.0258,-0.0255,-0.0242,-0.024,-0.0225,-0.0223,-0.0212,-0.0212,-0.0247,-0.0264,-0.0257,0,0,0,-0.0286,-0.0299,-0.0284,-0.0299,-0.0278,-0.0282,-0.0255,-0.0254,-0.0244,-0.0224,-0.0212,-0.0212,-0.0246,-0.0262,-0.0256,-0.0241,-0.0244,0,0,-0.0307,-0.0302,-0.0311,-0.0298,-0.0316,-0.0283,-0.0293,-0.0268,-0.0244,-0.0218,-0.0218,-0.0248,-0.0263,-0.0257,-0.0261,-0.0263,0,0,0,-0.032,-0.0328,-0.0331,-0.0336,-0.033,-0.0323,-0.0297,-0.028,-0.0259,-0.0241,-0.0245,-0.0253,-0.0248,-0.0236,-0.0239,-0.0214,-0.0214,-0.0214,-0.0214,-0.0353,-0.0353,-0.0373,-0.0373,-0.037,-0.0349,-0.0337,-0.0308,-0.0282,-0.0278,-0.0281,-0.0299,-0.0288,-0.0289,-0.0276,-0.0276,-0.0276,-0.0277,-0.0277,-0.0393,-0.041,-0.0406,-0.0426,-0.0413,-0.0412,-0.0374,-0.0353,-0.0325,-0.0307,-0.0299,-0.0273,-0.0294,-0.028,-0.0279,-0.0279,-0.0278,-0.0278,-0.0278,-0.0421,-0.0431,-0.0439,-0.0464,-0.0471,-0.0451,-0.0446,-0.0411,-0.0362,-0.0358,-0.0321,-0.032,-0.0314,-0.0348,-0.0348,-0.0348,-0.0348,-0.0348,-0.0348,-0.0448,-0.0458,-0.0486,-0.0504,-0.0518,-0.0521,-0.0487,-0.046,-0.0399,-0.0358,-0.0358,-0.0322,-0.032,-0.0317,-0.0349,-0.0349,-0.0349,-0.0349,-0.0349,-0.0486,-0.0489,-0.0532,-0.0552,-0.0581,-0.0586,-0.0552,-0.0479,-0.0435,-0.0396,-0.0346,-0.0346,-0.0328,-0.0325,-0.0322,-0.0353,-0.0353,-0.0353,-0.0353,-0.0509,-0.0515,-0.057,-0.0606,-0.0634,-0.0618,-0.0579,-0.0487,-0.0394,-0.0342,-0.0342,-0.033,-0.033,-0.031,-0.0308,-0.0303,-0.033,-0.033,-0.033,-0.0531,-0.0547,-0.0588,-0.0624,-0.0657,-0.0642,-0.059,-0.0462,-0.0331,-0.033,-0.0343,-0.0351,-0.0333,-0.0333,-0.0301,-0.0299,-0.0291,0,0]}],[{"header":{"parameterUnit":"m.s-1","parameterCategory":2,"la1":30.2992,"la2":30.254,"lo1":-89.0895,"lo2":-89.0443,"dy":0.0025,"dx":0.0025,"nx":19,"ny":19,"refTime":"2026-03-27T21:00:00:Z","depth":"4","parameterNumber":2,"parameterNumberName":"U-component_of_CURRENTS"},"data":[0,0,0,-0.098,-0.0981,-0.105,-0.105,-0.1107,-0.1108,0,0,0,0,0,0,0,0,0,0,0,-0.0959,-0.0959,-0.0979,-0.0981,-0.105,-0.105,-0.1107,-0.1108,0,0,0,0,0,0,0,0,0,0,0,-0.0958,-0.0959,-0.096,-0.0981,-0.105,-0.105,-0.1107,-0.1063,0,0,0,0,0,0,0,0,0,0,-0.1,-0.0986,-0.0959,-0.096,-0.0982,-0.105,-0.105,-0.1061,-0.1066,-0.1067,0,-0.1083,0,-0.1095,-0.1111,-0.1111,0,0,0,-0.0982,-0.0983,-0.1,-0.096,-0.0982,-0.105,-0.1019,-0.1064,-0.1069,-0.1073,-0.1083,-0.1086,-0.1096,-0.1111,-0.1111,-0.1167,-0.1168,0,0,-0.0978,-0.0972,-0.0996,-0.1003,-0.1006,-0.1017,-0.1021,-0.1068,-0.1075,-0.1084,-0.1087,-0.1096,-0.1111,-0.1112,-0.1167,-0.1168,0,0,0,-0.0967,-0.0969,-0.0986,-0.1,-0.1014,-0.1019,-0.1024,-0.1074,-0.1079,-0.1088,-0.1097,-0.1112,-0.1112,-0.1167,-0.1167,-0.1171,0,0,0,-0.0964,-0.0962,-0.0984,-0.0981,-0.1014,-0.1049,-0.1029,-0.1076,-0.1082,-0.1097,-0.1112,-0.1113,-0.1167,-0.1167,-0.117,-0.1166,0,0,0,-0.0954,-0.0961,-0.0971,-0.098,-0.1009,-0.1049,-0.1058,-0.1078,-0.1087,-0.1111,-0.1113,-0.1166,-0.1167,-0.1169,-0.1165,-0.1162,0,0,0,-0.0943,-0.0959,-0.0971,-0.0996,-0.1009,-0.1053,-0.1057,-0.1094,-0.1117,-0.1112,-0.1167,-0.1167,-0.1169,-0.1164,-0.1162,-0.1012,0,0,0,-0.0954,-0.0961,-0.0975,-0.0987,-0.1025,-0.1043,-0.1084,-0.1114,-0.1126,-0.1149,-0.115,-0.117,-0.1165,-0.1162,-0.1053,0,0,0,0,-0.0972,-0.0981,-0.0996,-0.1023,-0.1055,-0.1084,-0.1117,-0.113,-0.1161,-0.1142,-0.1183,-0.1179,-0.1177,-0.109,-0.117,-0.117,-0.117,-0.117,-0.117,-0.0966,-0.0987,-0.1012,-0.1043,-0.1073,-0.1117,-0.1139,-0.1163,-0.1175,-0.1191,-0.1192,-0.1205,-0.1114,-0.1206,-0.1206,-0.1206,-0.1206,-0.1206,-0.1206,-0.0968,-0.0974,-0.1015,-0.1047,-0.1085,-0.1121,-0.1163,-0.1177,-0.1202,-0.1208,-0.1206,-0.1112,-0.1207,-0.1206,-0.1206,-0.1206,-0.1206,-0.1206,-0.1206,-0.0944,-0.0949,-0.0983,-0.1028,-0.1072,-0.112,-0.1137,-0.1179,-0.1202,-0.1207,-0.1111,-0.1206,-0.1194,-0.1209,-0.1209,-0.1209,-0.1209,-0.1209,-0.1209,-0.0895,-0.0929,-0.0949,-0.1006,-0.1029,-0.1067,-0.1126,-0.1128,-0.1166,-0.1097,-0.1209,-0.1205,-0.1205,-0.1194,-0.1208,-0.1208,-0.1208,-0.1208,-0.1208,-0.0844,-0.0871,-0.0888,-0.0913,-0.0958,-0.0972,-0.1054,-0.1026,-0.1018,-0.0978,-0.1034,-0.1042,-0.1024,-0.1028,-0.101,-0.097,-0.0968,-0.0966,0,-0.0798,-0.0817,-0.0823,-0.0833,-0.0836,-0.0902,-0.0848,-0.087,-0.0898,-0.0869,-0.1022,-0.1086,-0.109,-0.1072,-0.1073,-0.1052,0,0,0,-0.0756,-0.0767,-0.0747,-0.0773,-0.0767,-0.0764,-0.0824,-0.0788,-0.0905,-0.0843,-0.0919,-0.0931,-0.1101,-0.1207,-0.12,-0.12,-0.1181,0,0]},{"header":{"parameterUnit":"m.s-1","parameterCategory":2,"la1":30.2992,"la2":30.254,"lo1":-89.0895,"lo2":-89.0443,"dy":0.0025,"dx":0.0025,"nx":19,"ny":19,"refTime":"2026-03-27T21:00:00:Z","depth":"4","parameterNumber":3,"parameterNumberName":"V-component_of_CURRENTS"},"data":[0,0,0,-0.0122,-0.0122,-0.0119,-0.0119,-0.0092,-0.0091,0,0,0,0,0,0,0,0,0,0,0,-0.0122,-0.0122,-0.0122,-0.0122,-0.0119,-0.0119,-0.0092,-0.0091,0,0,0,0,0,0,0,0,0,0,0,-0.0122,-0.0122,-0.0122,-0.0122,-0.0119,-0.0119,-0.0092,-0.0098,0,0,0,0,0,0,0,0,0,0,-0.0104,-0.0111,-0.0122,-0.0122,-0.0122,-0.0119,-0.0119,-0.0099,-0.0098,-0.0088,0,-0.0092,0,-0.0093,-0.0089,-0.0089,0,0,0,-0.0116,-0.0112,-0.0111,-0.0122,-0.0122,-0.0119,-0.0119,-0.0099,-0.0097,-0.0087,-0.0091,-0.009,-0.0093,-0.0089,-0.0089,-0.009,-0.0091,0,0,-0.0117,-0.0121,-0.0112,-0.011,-0.0126,-0.0119,-0.0119,-0.0098,-0.0099,-0.0091,-0.009,-0.0092,-0.0089,-0.0089,-0.009,-0.0091,0,0,0,-0.0121,-0.0121,-0.012,-0.0111,-0.0114,-0.0119,-0.0119,-0.01,-0.01,-0.009,-0.0092,-0.0089,-0.0089,-0.009,-0.009,-0.0128,0,0,0,-0.0121,-0.0124,-0.012,-0.0122,-0.0114,-0.0111,-0.0121,-0.0101,-0.0099,-0.0092,-0.0089,-0.0088,-0.009,-0.009,-0.0127,-0.0144,0,0,0,-0.0121,-0.0124,-0.0125,-0.0122,-0.0124,-0.0111,-0.011,-0.0101,-0.01,-0.0089,-0.0088,-0.009,-0.009,-0.0125,-0.0142,-0.0148,0,0,0,-0.0123,-0.0135,-0.0125,-0.014,-0.0124,-0.0134,-0.011,-0.0114,-0.0108,-0.0089,-0.009,-0.009,-0.0125,-0.014,-0.0147,-0.0143,0,0,0,-0.0141,-0.0137,-0.0147,-0.0138,-0.0158,-0.0134,-0.015,-0.0131,-0.0111,-0.0093,-0.0093,-0.0127,-0.0142,-0.0148,-0.0174,0,0,0,0,-0.0154,-0.0162,-0.0166,-0.0175,-0.0174,-0.0177,-0.0158,-0.0148,-0.0137,-0.0111,-0.0127,-0.0135,-0.0138,-0.0132,-0.0093,-0.0093,-0.0093,-0.0093,-0.0093,-0.018,-0.0183,-0.0205,-0.0209,-0.0213,-0.0206,-0.0203,-0.0185,-0.0162,-0.0165,-0.0167,-0.0198,-0.0194,-0.0165,-0.0166,-0.0166,-0.0166,-0.0166,-0.0166,-0.0213,-0.0228,-0.0234,-0.0256,-0.0256,-0.0264,-0.0247,-0.0233,-0.0222,-0.0201,-0.0201,-0.0173,-0.017,-0.0169,-0.0169,-0.0168,-0.0168,-0.0168,-0.0167,-0.0231,-0.0241,-0.0255,-0.0288,-0.0308,-0.0304,-0.0316,-0.0293,-0.026,-0.0262,-0.0241,-0.022,-0.0215,-0.0259,-0.0259,-0.0259,-0.0259,-0.0259,-0.0259,-0.0245,-0.026,-0.0293,-0.0322,-0.0346,-0.0365,-0.0357,-0.0345,-0.031,-0.0284,-0.0271,-0.0229,-0.0226,-0.022,-0.0261,-0.0261,-0.026,-0.026,-0.026,-0.0269,-0.0277,-0.0326,-0.0356,-0.0406,-0.0415,-0.041,-0.0371,-0.0357,-0.0327,-0.0288,-0.0286,-0.0268,-0.0264,-0.0259,-0.0313,-0.0313,-0.0313,0,-0.0283,-0.0292,-0.0358,-0.0407,-0.0445,-0.0445,-0.0431,-0.0406,-0.0354,-0.0349,-0.0355,-0.0312,-0.031,-0.0291,-0.0288,-0.0283,0,0,0,-0.0301,-0.032,-0.0368,-0.0418,-0.0462,-0.0438,-0.0425,-0.0407,-0.0362,-0.034,-0.0316,-0.0315,-0.0299,-0.0266,-0.0235,-0.0231,-0.022,0,0]}]]